Tracking 19847 objects as of 15-Sep-2019
HD Live streaming from Space Station
objects crossing your sky now

WEOS

Track WEOS now!
10-day predictions
WEOS is classified as:


NORAD ID: 27599
Int'l Code: 2002-056C
Perigee: 793.6 km
Apogee: 807.7 km
Inclination: 98.5 °
Period: 100.7 minutes
Semi major axis: 7171 km
RCS: 0.3299 m2 (medium)
Launch date: December 14, 2002
Source: Japan (JPN)
Launch site: TANEGASHIMA SPACE CENTER (TNSTA)
aabbcc
Your satellite tracking list
Your tracking list is empty




NASA's NSSDC Master Catalog

Two Line Element Set (TLE):
1 27599U 02056C   19257.81758956 -.00000003 +00000-0 +15592-4 0  9998
2 27599 098.4981 203.4275 0009882 356.3336 003.7772 14.29465021873730
Source of the keplerian elements: AFSPC